Weather Roundup
Issued by NWS Chicago, IL

Home | Current Version | Previous Version | Graphics & Text | Print | Product List | Glossary On
Versions: 1 2 3 4 5 6 7 8 9 10 11 12 13 14 15 16 17 18 19 20 21 22 23 24 25 26 27 28 29 30 31 32 33 34 35 36 37 38 39 40 41 42 43 44 45 46 47 48 49 50
000
NZUS59 KLOT 011121
HRRLOT

CHICAGO AREA WEATHER ROUNDUP
NATIONAL WEATHER SERVICE CHICAGO/ROMEOVILLE IL
600 AM CDT SAT AUG 01 2015

NOTE: "FAIR" INDICATES FEW OR NO CLOUDS BELOW 12,000 FEET WITH NO
SIGNIFICANT WEATHER AND/OR OBSTRUCTIONS TO VISIBILITY.

* THESE STATIONS ARE NOT UNDER NWS QUALITY CONTROL. THEY ALSO MAY NOT
  REPORT WEATHER SUCH AS PRECIPITATION OR FOG.

ILZ005-006-012>014-019>023-011200-
NORTHEAST ILLINOIS

CITY           SKY/WX    TMP DP  RH WIND       PRES   REMARKS
OHARE          CLEAR     64  53  67 W8        29.98S
MIDWAY         PTCLDY    67  52  58 W6        29.99R
AURORA         CLEAR     56  52  86 W5        30.01S
LANSING*       CLEAR     61  54  77 W5        30.00R
JOLIET*        CLEAR     57  56  94 CALM      30.01R
WAUKEGAN       CLEAR     61  53  75 VRB3      29.97S
DUPAGE AIRPORT CLEAR     61  53  75 CALM      30.00R
WHEELING       CLEAR     64  52  64 W3        30.00R
KANKAKEE*      CLEAR     59  57  92 W3        30.02S
MORRIS*        CLEAR     58  56  91 W6        30.00S
LEWIS AIRPORT* CLEAR     59  54  83 W6        30.01R
NORTHERLY IS     N/A     70  53  54 W7          N/A
$$

WIZ051-052-058>065-066-070>072-011200-
SOUTHEAST WISCONSIN

CITY           SKY/WX    TMP DP  RH WIND       PRES   REMARKS
MILWAUKEE      CLEAR     66  51  58 W7        29.96S
KENOSHA*       CLEAR     59  52  77 W7        29.97S
RACINE*        CLEAR     62  52  69 W6        29.98S
BURLINGTON     CLEAR     54  51  89 S5        29.98R
WAUKESHA       CLEAR     57  50  77 W5        29.98S
WEST BEND      CLEAR     61  50  67 W6        29.95S
$$

INZ001>003-010>013-019-020-011200-
NORTHWEST INDIANA

CITY           SKY/WX    TMP DP  RH WIND       PRES   REMARKS
GARY*          CLEAR     61  55  82 W8        29.99S
MICHIGAN CITY* NOT AVBL
RENSSELAER*    NOT AVBL
VALPARAISO     CLEAR     61  53  75 W6        30.00R
$$

LMZ740>746-011200-
SOUTHERN LAKE MICHIGAN

STATION/POSITION TIME  SKY/WX   TEMP WIND        PRES    VSBY
                                AIR  DIR/SP/G
                 (UTC)          (F)  (DEG/KT/KT) (MB)    (MI)
HARRISON CRIB    1100            69  270/ 12/ 13   N/A
BURNHAM HARBOR   1100            69  270/  7/ 10   N/A
CALUMET HARBOR   1000            67  250/  3/  5   N/A
BURNS HARBOR     1000            71  250/  7/ 12 1015.6S
MICHIGAN CITY    1100            72  260/ 15/ 17   N/A
$$

ABBREVIATIONS USED IN REMARKS
   TC - TEMPERATURE IN CELSIUS
  WCI - WIND CHILL INDEX
   HX - HEAT INDEX
  VSB - VISIBILITY
$$


USA.gov is the U.S. government's official web portal to all federal, state and local government web resources and services.